Welcome to the New NWS' Forecast!
Most changes are behind the scenes, but click here for differences you might notice.
Latest weather observations around

Little Rock, Adams Field (KLIT)

Using English Units (Switch to International System of Units)
Date/ Time (CDT) Wind (mph) Vis. (mi) Weather Sky Cond. Temp (°F) Rel. Humidity Wind Chill (°F) Heat Index (°F) Pressure Precip. (in)
Air Dwpt 6 hour Altimeter (inHg) Sea level (inHg) 1 hr 3 hr 6 hr
Max Min
May 24 21:53 W 5 10 Partly Cloudy SCT060 58 52     81%     29.7 29.7 0 0  
May 24 20:53   10 Light Rain BKN060 64 49     58%     29.69 29.7 0    
May 24 19:53   10 Mostly Cloudy BKN055 65 47     52%     29.67 29.67      
May 24 18:53   10 Partly Cloudy SCT055 SCT100 68 46     45%     29.65 29.65      
May 24 17:53   10 Mostly Cloudy BKN055 BKN100 69 46     44%     29.64 29.65      
May 24 16:53   10 Mostly Cloudy SCT050 BKN100 70 46     42%     29.64 29.64      
May 24 15:53   10 Mostly Cloudy SCT050 BKN100 71 49     45%   70 29.64 29.64      
May 24 14:53   10 Mostly Cloudy SCT045 BKN100 69 49     49%     29.65 29.65      
May 24 13:53   10 Mostly Cloudy SCT035 BKN080 BKN120 65 48     54%     29.66 29.66      
May 24 12:53   10 Cloudy SCT028 BKN070 OVC090 64 50     60%     29.66 29.67      
May 24 11:53 WNW 11 10 Mostly Cloudy SCT028 BKN050 66 52     61%     29.66 29.66      
May 24 09:53 NNW 14 10 Partly Cloudy SCT025 63 53     70%     29.67 29.67      
May 24 08:53 NNW 15 10 Clear   60 53     78%     29.66 29.67      
May 24 07:53 WNW 9 10 Partly Cloudy SCT070 SCT250 59 54     83%     29.66 29.66      
May 24 06:53 WNW 10 10 Mostly Cloudy SCT070 BKN200 58 54     87%     29.65 29.66     0
May 24 05:53 WNW 9 10 Partly Cloudy FEW120 SCT200 57 55     93%     29.65 29.65      
May 24 04:53 W 7 10 Cloudy FEW120 OVC200 58 56     93%     29.65 29.65      
May 24 03:53 W 10 10 Mostly Clear FEW090 59 58     96%     29.66 29.66   0  
May 24 02:53 W 7 10 Cloudy BKN110 OVC200 60 60     100%     29.68 29.68      
May 24 01:53 SW 6 10 Cloudy SCT110 OVC200 60 60     100%     29.71 29.71 0    
May 24 00:53 NW 8 10 Light Rain OVC085 60 59     96%     29.73 29.72 0   0
May 23 23:53 NW 10 10 Cloudy OVC080 62 57     84%     29.73 29.73      
May 23 22:53 NNW 13 10 Cloudy FEW040 OVC070 63 58     84%     29.73 29.72 0    
May 23 21:53 NNW 10 10 Cloudy FEW040 BKN090 OVC120 64 58     81%     29.73 29.73   0  
May 23 20:53 NNW 8 10 Cloudy SCT040 BKN070 OVC120 63 59     87%     29.72 29.72 0    
May 23 19:53   8 Cloudy BKN040 BKN120 OVC250 67 56     68%     29.72 29.72      
May 23 18:53 NW 13 10 Mostly Cloudy SCT040 SCT070 BKN250 74 58     57%   74 29.7 29.7      
May 23 17:53   10 Mostly Cloudy SCT040 SCT100 BKN250 76 56     50%   76 29.69 29.69      
May 23 16:53 NNW 14 10 Mostly Cloudy SCT040 BKN090 BKN250 77 54     45%   77 29.7 29.7      
May 23 15:53 NW 9 10 Mostly Cloudy SCT040 BKN090 BKN250 78 56     47%   78 29.72 29.72      
May 23 14:53 WNW 8 10 Mostly Cloudy SCT040 BKN130 BKN250 75 57     54%   75 29.74 29.73      
May 23 13:53 NNW 9 10 Mostly Cloudy SCT040 BKN130 BKN250 75 58     55%   75 29.76 29.76      
May 23 12:53 NNW 9 10 Mostly Cloudy SCT035 SCT110 BKN250 76 60     58%   76 29.78 29.78      
May 23 11:53 NW 10 10 Mostly Cloudy SCT035 SCT100 BKN250 75 60     60%   75 29.79 29.79      
May 23 10:53 W 10 10 Mostly Cloudy FEW030 SCT100 BKN250 71 60     68%   71 29.81 29.81      
May 23 09:53 NW 7 10 Mostly Cloudy FEW025 SCT120 BKN250 68 59     73%     29.82 29.82      
May 23 08:53 SW 5 10 Mostly Cloudy FEW040 SCT120 BKN250 66 58     75%     29.83 29.83      
May 23 07:53 W 6 10 Mostly Cloudy FEW040 SCT120 BKN250 63 58     84%     29.84 29.84      
May 23 06:53 WSW 3 10 Mostly Cloudy SCT040 BKN120 BKN200 61 58     90%     29.83 29.83      
May 23 05:53 Calm 10 Mostly Cloudy SCT029 BKN060 BKN150 60 59     96%     29.83 29.83      
May 23 04:53 Calm 10 Cloudy SCT029 OVC150 61 59     93%     29.85 29.85      
May 23 03:53 WSW 5 10 Cloudy BKN060 OVC250 60 59     96%     29.85 29.85      
May 23 02:53 W 5 10 Cloudy OVC060 62 60     93%     29.87 29.87      
May 23 01:53 Calm 10 Cloudy OVC060 61 60     97%     29.88 29.88      
May 23 00:53 W 3 10 Cloudy BKN060 OVC250 61 60     97%     29.91 29.91      
May 22 23:53 Calm 10 Mostly Cloudy SCT060 BKN100 BKN250 62 59     90%     29.93 29.93      
May 22 22:53 Calm 10 Mostly Cloudy SCT055 BKN100 BKN250 62 59     90%     29.94 29.95      
May 22 21:53 S 3 10 Cloudy BKN060 OVC100 64 58     81%     29.95 29.96      
May 22 20:53 S 3 10 Cloudy BKN100 OVC250 64 59     84%     29.95 29.96      
May 22 19:53 Calm 10 Cloudy BKN090 OVC250 66 56     70%     29.96 29.96      
May 22 18:53 Calm 10 Mostly Cloudy BKN090 BKN250 67 55     66%     29.97 29.97      
May 22 17:53 Calm 10 Mostly Cloudy BKN090 BKN250 68 55     63%     29.98 29.98      
May 22 16:53 SE 7 10 Mostly Cloudy BKN100 BKN250 68 54     61%     29.99 29.99      
May 22 15:53 SE 6 10 Mostly Cloudy BKN095 BKN250 68 53     59%     30.01 30.02      
May 22 14:53 ESE 6 10 Mostly Cloudy BKN100 BKN250 67 51     57%     30.04 30.05      
May 22 13:53 ENE 11 10 Mostly Cloudy FEW080 BKN110 BKN250 68 49     50%     30.05 30.06      
May 22 12:53   10 Mostly Cloudy BKN130 BKN250 70 49     47%     30.1 30.1      
May 22 11:53   10 Partly Cloudy SCT130 SCT250 72 50     46%   71 30.11 30.11      
May 22 10:53 ENE 10 10 Mostly Cloudy SCT150 BKN250 67 53     61%     30.11 30.12      
May 22 09:53 NE 7 10 Mostly Cloudy SCT150 BKN250 65 55     70%     30.13 30.14      
May 22 08:53 ENE 3 10 Mostly Cloudy BKN150 BKN250 63 55     75%     30.16 30.17      
May 22 06:53 Calm 10 Cloudy BKN150 OVC250 61 51     70%     30.15 30.15      
May 22 05:53 NE 6 10 Cloudy BKN150 OVC250 60 50     69%     30.13 30.13      
May 22 04:53 NE 5 10 Cloudy BKN150 OVC250 61 50     67%     30.13 30.13      
May 22 03:53 NE 5 10 Cloudy OVC250 60 53     78%     30.12 30.12      
May 22 02:53 NNE 7 10 Cloudy OVC250 62 50     65%     30.11 30.11      
May 22 01:53 N 7 10 Mostly Cloudy BKN250 60 52     75%     30.11 30.11      
May 22 00:53 N 6 10 Mostly Cloudy BKN250 59 52     78%     30.12 30.12      
May 21 23:53 NE 6 10 Mostly Cloudy BKN250 60 52     75%     30.13 30.13      
May 21 22:53 NNE 7 10 Mostly Cloudy BKN250 62 52     70%     30.14 30.14      
May 21 21:53 NE 6 10 Mostly Cloudy BKN250 65 50     58%     30.13 30.13      
May 21 20:53 N 6 10 Mostly Cloudy SCT100 BKN200 BKN250 66 49     54%     30.12 30.12      
May 21 19:53 NNE 10 10 Mostly Cloudy SCT100 BKN200 BKN250 69 49     49%     30.1 30.1      
May 21 18:53 N 13 10 Partly Cloudy FEW200 SCT250 73 47     39%   72 30.08 30.08      
May 21 17:53 N 11 10 Partly Cloudy FEW200 SCT250 77 53     43%   76 30.1 30.1      
May 21 16:53 N 9 10 Partly Cloudy FEW150 SCT200 78 55     45%   78 30.06 30.06      
May 21 15:53 NNW 14 10 Partly Cloudy FEW150 SCT200 77 54     45%   77 30.08 30.08      
May 21 14:53 NNW 9 10 Partly Cloudy FEW100 FEW150 SCT250 76 52     43%   75 30.11 30.11      
May 21 13:53 WNW 11 10 Partly Cloudy FEW050 FEW180 SCT250 75 51     43%   74 30.12 30.12      
May 21 12:53 W 11 10 Mostly Clear FEW050 FEW180 FEW250 73 51     46%   72 30.14 30.14      
May 21 11:53 NW 10 10 Mostly Clear FEW120 FEW250 74 53     48%   73 30.13 30.13      
May 21 10:53 NW 11 10 Mostly Clear FEW060 FEW120 FEW250 72 53     51%   71 30.13 30.13      
May 21 09:53 NW 16 10 Mostly Clear FEW060 FEW120 FEW250 69 52     54%     30.14 30.14      
May 21 08:53 NW 9 10 Mostly Clear FEW050 FEW100 FEW250 67 54     63%     30.13 30.13      
May 21 07:53 NW 9 10 Mostly Clear FEW050 FEW120 64 58     81%     30.12 30.12      
May 21 06:53 NW 6 10 Mostly Clear FEW050 FEW100 61 60     97%     30.12 30.12     0
May 21 05:53 NNW 6 10 Mostly Clear FEW100 62 60     93%     30.09 30.09      
May 21 04:53 WNW 9 10 Mostly Cloudy BKN250 63 61     93%     30.07 30.07      
May 21 03:53 NW 8 10 Mostly Cloudy SCT090 BKN250 64 62     93%     30.06 30.06   0  
May 21 02:53 NW 11 10 Cloudy OVC048 66 63     90%     30.04 30.04      
May 21 01:53 NW 10 10 Cloudy SCT045 OVC060 67 65     93%     30.02 30.02 0    
May 21 01:05 WNW 7 10 Cloudy FEW020 SCT035 OVC045 68 66     93%     30.02   0    
May 21 00:53 WNW 7 6 Light Rain and Fog/Mist FEW020 OVC030 68 67     96%     30.02 30.02 0   0
May 21 00:47 WNW 8 4 Light Rain and Fog/Mist FEW020 OVC030 66 66     100%     30.02   0    
May 21 00:42 W 7 2.5 Rain and Fog/Mist SCT020 OVC030 68 67     96%     30.02   0    
May 21 00:31 W 9 4 Rain and Fog/Mist SCT020 OVC030 69 67     93%     30.03   0    
May 20 23:53   10 Mostly Cloudy SCT032 BKN045 BKN250 71 68     90%   72 30 30      
May 20 22:53   10 Cloudy FEW070 OVC085 71 69     93%   72 29.99 29.99 0    
May 20 21:53 SSW 6 10 Cloudy OVC065 71 70     96%   72 29.98 29.98      
May 20 20:53 S 3 10 Mostly Cloudy FEW075 BKN250 71 69     93%   72 29.95 29.94      
May 20 19:53 S 6 10 Mostly Cloudy BKN075 BKN250 73 69     87%   74 29.93 29.93      
May 20 18:53 S 9 10 Mostly Cloudy FEW028 BKN075 BKN250 75 69     82%   76 29.94 29.94      
May 20 17:53 S 8 10 Mostly Cloudy SCT028 BKN100 BKN250 76 69     79%   77 29.93 29.93      
May 20 16:53 SSW 8 10 Mostly Cloudy SCT028 BKN120 BKN250 77 69     77%   78 29.9 29.9      
May 20 15:53 S 8 10 Mostly Cloudy SCT030 SCT150 BKN250 76 69     79%   77 29.91 29.91      
May 20 14:53 3 10 Mostly Cloudy FEW025 SCT150 BKN250 74 67     79%   75 29.91 29.91      
May 20 13:53 SSE 11 10 Mostly Cloudy SCT015 BKN080 BKN120 73 67     81%   74 29.96 29.96      
May 20 12:53 SE 8 10 Mostly Cloudy FEW010 SCT025 BKN100 BKN250 69 66     90%     29.95 29.96 0   1
May 20 11:53 ESE 11 10 Light Rain FEW005 SCT040 BKN110 OVC250 66 66     100%     29.97 29.97 0    
May 20 11:18 ESE 11 10 Light Rain FEW005 SCT040 OVC080 65 65     100%     29.98   0    
May 20 10:53   5 Thunderstorms and Rain and Fog/Mist SCT007 OVC040 64 64     100%     29.98 29.98 0    
May 20 10:16 E 8 5 Thunderstorms and Rain and Fog/Mist FEW007 BKN040 OVC070 64 64     100%     30   0    
May 20 09:53 E 8 2.5 Thunderstorms and Rain and Fog/Mist SCT007 BKN030 OVC050 64 64     100%     30.01 30.01 0 1  
May 20 09:37 NE 3 2.5 Thunderstorms and Rain and Fog/Mist SCT007 OVC030 63 63     100%     30.01   0    
May 20 09:07 NE 10 6 Thunderstorms and Rain and Fog/Mist FEW006 BKN034 OVC070 63 63     100%     30   0    
May 20 08:53 NE 8 1.5 Thunderstorms and Rain and Fog/Mist FEW006 OVC025 63 63     100%     30 30 1    
May 20 08:27 NE 8 1 Thunderstorms and Heavy Rain and Fog/Mist FEW006 OVC020 63 63     100%     30.01   0    
May 20 08:04 NNE 9 1.5 Thunderstorms and Heavy Rain and Fog/Mist FEW010 BKN025 OVC032 63 63     100%     30.01   0    
May 20 07:53 N 13 5 Thunderstorms and Rain and Fog/Mist BKN015 OVC025 64 64     100%     30 30 0    
May 20 07:32   5 Thunderstorms and Rain and Fog/Mist BKN015 OVC025 65 64     97%     29.98   0    
May 20 07:10 N 11 7 Thunderstorms and Rain BKN015 OVC025 66 63     90%     29.97   0    
May 20 06:53 NNE 11 10 Thunderstorms BKN015 OVC025 67 64     90%     29.96 29.96      
May 20 06:42 N 10 10 Thunderstorms BKN015 OVC025 68 65     90%     29.95        
May 20 06:26 ENE 3 10 Thunderstorms BKN015 OVC025 74 73     97%   76 29.93        
May 20 05:53 Calm 10 Cloudy BKN015 OVC025 73 73     100%   75 29.91 29.9      
May 20 05:35 S 3 10 Cloudy BKN017 OVC030 73 73     100%   75 29.9        
May 20 04:53 S 7 10 Cloudy SCT030 OVC050 74 73     97%   76 29.89 29.89      
May 20 03:53 S 5 10 Cloudy SCT030 BKN100 OVC250 74 73     97%   76 29.88 29.88      
May 20 02:53 S 9 10 Mostly Cloudy FEW050 SCT095 BKN250 74 73     97%   76 29.85 29.85      
May 20 01:53 SSE 9 10 Mostly Cloudy FEW050 SCT095 BKN250 75 73     94%   77 29.85 29.85      
May 20 00:53 SSE 9 10 Mostly Cloudy FEW050 SCT095 BKN250 75 73     94%   77 29.86 29.86      
May 19 23:53 ESE 5 10 Cloudy BKN095 OVC250 74 74     100%   76 29.88 29.87      
May 19 22:53 Calm 10 Mostly Cloudy FEW110 BKN250 74 74     100%   76 29.88 29.88      
May 19 21:53 E 3 10 Cloudy OVC110 74 74     100%   76 29.87 29.87      
May 19 20:53 ENE 6 10 Clear   74 73     97%   76 29.87 29.87      
May 19 19:53 ESE 6 10 Mostly Cloudy FEW045 FEW090 BKN250 73 72     96%   75 29.86 29.86      
May 19 18:53 ESE 5 10 Mostly Cloudy FEW030 SCT049 BKN070 BKN250 73 71     94%   74 29.85 29.85 0   0
May 19 18:42 ESE 10 10 Cloudy FEW026 BKN046 BKN095 OVC250 73 71     94%   74 29.85   0    
May 19 18:21 SE 16 7 Thunderstorms and Rain FEW020 BKN040 BKN110 OVC250 75 70     84%   76 29.87   0    
May 19 17:53 S 9 10 Thunderstorms SCT045 SCT090 BKN250 87 72     61%   94 29.84 29.84      
May 19 17:45 S 9 10 Mostly Cloudy SCT045 SCT090 BKN250 87 71     59%   93 29.83        
May 19 16:53 S 10 10 Mostly Cloudy SCT045 SCT090 BKN250 86 73     65%   93 29.85 29.84      
May 19 15:53 SW 5 10 Mostly Cloudy SCT042 SCT090 BKN250 84 74     72%   91 29.86 29.86 0 0  
May 19 15:13 SE 8 10 Light Rain BKN030 BKN050 OVC250 81 72     74%   85 29.88   0    
May 19 14:53 S 8 10 Light Rain BKN030 BKN050 OVC250 85 75     72%   93 29.89 29.89 0    
May 19 14:40 SSE 11 9 Light Rain SCT030 BKN050 OVC250 82 73     74%   87 29.89   0    
May 19 13:53 S 8 10 Cloudy SCT030 BKN050 OVC250 86 72     63%   92 29.9 29.89      
May 19 13:29 SSW 7 10 Mostly Cloudy SCT025 BKN055 BKN250 84 72     67%   90 29.91        
May 19 12:53 S 9 10 Cloudy BKN025 BKN055 OVC150 85 72     65%   91 29.92 29.91      
May 19 12:14 SE 10 10 Cloudy BKN025 OVC055 83 73     72%   89 29.94        
May 19 11:53 SE 8 10 Cloudy SCT025 BKN055 OVC250 82 73     74%   87 29.95 29.94      
May 19 10:53 SE 7 10 Cloudy SCT025 BKN035 OVC250 80 72     76%   84 29.96 29.95      
May 19 09:53 5 10 Cloudy SCT015 BKN030 OVC250 77 67     71%   78 29.96 29.96      
May 19 09:48 E 5 10 Cloudy SCT020 BKN030 OVC250 75 66     74%   76 29.96        
May 19 09:04 E 5 10 Cloudy BKN020 BKN030 OVC250 73 65     76%   74 29.97        
May 19 08:53 ESE 5 10 Cloudy SCT020 BKN030 OVC250 72 65     79%   73 29.96 29.96      
May 19 07:53 SE 3 10 Cloudy FEW030 BKN060 OVC250 69 64     84%     29.95 29.95      
May 19 06:53 SSE 5 10 Cloudy SCT030 SCT120 OVC250 66 64     93%     29.95 29.95     0
May 19 05:53 ESE 7 10 Mostly Cloudy SCT025 BKN100 65 64     97%     29.93 29.93      
May 19 04:53 Calm 10 Cloudy SCT035 BKN050 OVC080 68 61     78%     29.94 29.93 0    
May 19 03:53 NNW 15 10 Cloudy SCT025 BKN035 OVC080 71 61     70%   71 29.95 29.95      
May 19 02:53 WSW 3 10 Cloudy FEW045 SCT100 OVC250 74 69     85%   75 29.94 29.94      
May 19 01:53 S 7 10 Mostly Cloudy FEW050 BKN250 73 70     90%   74 29.91 29.91      
May 19 00:53 SSE 5 10 Mostly Cloudy FEW080 BKN250 73 71     94%   74 29.89 29.89      
May 18 23:53 S 7 10 Mostly Cloudy FEW080 BKN250 74 71     91%   75 29.89 29.89      
May 18 22:53 SSE 6 10 Mostly Cloudy BKN250 76 71     85%   77 29.88 29.88      
May 18 21:53 S 8 10 Partly Cloudy SCT250 77 70     79%   78 29.86 29.86      
May 18 20:53 SSE 8 10 Partly Cloudy SCT250 78 71     79%   79 29.83 29.83      
May 18 19:53 SSE 8 10 Partly Cloudy SCT055 SCT250 80 71     74%   84 29.84 29.84      
May 18 18:53   10 Mostly Clear FEW040 FEW060 83 71     67%   88 29.83 29.83      
May 18 17:53 SSE 14 10 Partly Cloudy SCT040 SCT060 84 71     65%   89 29.84 29.84      
May 18 16:53 SSE 16 10 Partly Cloudy SCT040 84 70     63%   88 29.86 29.86      
May 18 15:53 SSE 11 10 Mostly Cloudy BKN035 84 71     65%   89 29.87 29.86      
May 18 14:53   10 Mostly Cloudy BKN035 BKN045 85 71     63%   90 29.88 29.88      
May 18 13:53 SSE 13 10 Mostly Cloudy SCT030 BKN045 83 72     70%   88 29.9 29.89      
May 18 12:53 S 15 10 Cloudy SCT026 BKN040 OVC250 82 72     72%   87 29.92 29.92     0
May 18 12:27   10 Cloudy SCT026 BKN035 OVC250 82 72     72%   87 29.93        
May 18 11:53 S 10 10 Cloudy BKN026 BKN035 OVC250 80 72     76%   84 29.93 29.93      
May 18 10:53 SSW 11 10 Cloudy SCT016 BKN020 OVC045 78 72     82%   79 29.93 29.93      
May 18 09:53 SSW 13 10 Mostly Cloudy BKN016 BKN045 76 71     85%   77 29.92 29.92 0 0  
May 18 09:01 S 13 10 Mostly Cloudy BKN016 BKN030 73 71     94%   74 29.92   0    
May 18 08:53 S 9 9 Light Rain BKN016 OVC030 73 71     94%   74 29.92 29.92 0    
May 18 08:50 S 9 9 Light Rain BKN016 OVC030 73 72     94%   75 29.92   0    
May 18 07:53 S 9 10 Cloudy BKN018 BKN025 OVC045 72 70     93%   73 29.91 29.91      
May 18 07:10 S 8 10 Cloudy BKN018 OVC035 72 70     93%   73 29.9        
May 18 06:53 S 9 10 Cloudy SCT020 OVC035 72 69     91%   73 29.89 29.89      
May 18 05:53 S 8 10 Cloudy BKN034 OVC046 71 69     93%   72 29.88 29.88      
May 18 04:53 S 7 10 Cloudy BKN041 OVC110 71 68     90%   72 29.87 29.87      
May 18 03:53 S 6 10 Mostly Cloudy FEW065 BKN100 BKN200 70 68     93%     29.87 29.86      
May 18 02:53 SSE 6 10 Mostly Cloudy BKN060 BKN100 71 69     93%   72 29.86 29.86      
May 18 01:53 SSE 5 10 Mostly Cloudy BKN055 BKN100 71 69     93%   72 29.85 29.85      
May 18 00:53 SE 5 10 Mostly Cloudy BKN050 BKN200 71 71     100%   73 29.85 29.84     0
May 17 23:53 SSE 5 10 Clear   72 72     100%   74 29.84 29.84      
May 17 22:53 SSE 5 10 Cloudy OVC046 72 72     100%   74 29.84 29.84      
May 17 21:53 WSW 6 10 Cloudy OVC055 73 71     94%   74 29.83 29.83   0  
May 17 20:53 SW 6 10 Cloudy OVC049 73 71     94%   74 29.82 29.82      
May 17 19:53 S 10 10 Cloudy FEW030 OVC050 73 71     94%   74 29.8 29.8 0    
May 17 18:53 SW 6 7 Light Rain SCT025 OVC040 74 71     91%   75 29.8 29.8 0   0
May 17 18:49 SW 8 7 Light Rain SCT025 OVC040 73 72     94%   75 29.8   0    
May 17 18:28 SSW 10 2 Light Rain and Fog/Mist BKN025 OVC035 74 71     91%   75 29.81   0    
May 17 18:12 SSW 9 4 Light Rain and Fog/Mist SCT025 OVC035 75 72     90%   76 29.81   0    
May 17 17:53 S 7 7 Light Rain BKN038 OVC050 75 71     88%   76 29.81 29.8 0    
May 17 16:53 WSW 10 10 Light Rain BKN040 OVC050 77 69     77%   78 29.79 29.79 0    
May 17 15:53 S 11 10 Cloudy OVC040 78 68     71%   79 29.78 29.78      
May 17 14:53 S 15 10 Cloudy BKN040 BKN060 OVC250 79 68     69%   80 29.79 29.78      
May 17 13:53 S 16 10 Mostly Cloudy SCT040 BKN070 BKN250 80 68     67%   83 29.79 29.78      
May 17 12:53 S 14 10 Cloudy BKN040 BKN080 OVC250 80 67     64%   82 29.8 29.8      
May 17 11:53   10 Mostly Cloudy SCT035 SCT080 BKN250 82 66     58%   84 29.8 29.8      
May 17 10:53 S 16 10 Mostly Cloudy SCT025 BKN250 79 67     67%   80 29.82 29.81      
May 17 09:53   10 Mostly Cloudy FEW020 BKN250 75 67     76%   76 29.84 29.84      
May 17 08:53   10 Mostly Cloudy FEW020 SCT060 BKN250 73 66     79%   74 29.85 29.85      
May 17 07:53 SSE 10 10 Mostly Cloudy SCT060 BKN250 67 63     87%     29.88 29.88      
May 17 06:53 SSE 6 10 Cloudy SCT042 BKN055 OVC250 67 63     87%     29.9 29.89      
May 17 05:53 WSW 7 10 Mostly Cloudy BKN042 BKN250 67 62     84%     29.88 29.88      
May 17 04:53 S 9 10 Mostly Cloudy BKN250 67 62     84%     29.79 29.79      
May 17 03:53 S 8 10 Mostly Cloudy SCT045 BKN250 67 62     84%     29.78 29.78      
May 17 02:53 SSE 9 10 Partly Cloudy SCT043 SCT250 70 62     76%     29.79 29.79      
May 17 01:53 S 14 10 Partly Cloudy SCT050 71 61     70%   71 29.79 29.78      
May 17 00:53 S 9 10 Mostly Clear FEW055 72 62     71%   72 29.8 29.8      
May 16 23:53   10 Partly Cloudy SCT050 SCT250 74 62     66%   74 29.82 29.81      
May 16 22:53 S 9 10 Partly Cloudy SCT250 72 63     73%   72 29.82 29.82      
May 16 21:53 S 9 10 Mostly Clear FEW055 74 63     69%   74 29.83 29.83      
May 16 20:53 SSE 9 10 Mostly Cloudy BKN055 76 64     67%   76 29.82 29.81      
May 16 19:53 SSE 9 10 Partly Cloudy SCT055 78 63     60%   78 29.82 29.82      
May 16 18:53 S 13 10 Partly Cloudy SCT055 80 63     56%   81 29.83 29.83      
May 16 17:53 S 13 10 Partly Cloudy SCT055 82 62     51%   83 29.85 29.85      
May 16 16:53 SSE 16 10 Partly Cloudy SCT055 84 63     49%   85 29.86 29.86      
May 16 15:53 S 9 10 Partly Cloudy SCT055 83 62     49%   84 29.88 29.88      
May 16 14:53   10 Partly Cloudy SCT050 86 63     46%   87 29.9 29.9      
May 16 13:53 S 15 10 Partly Cloudy SCT050 84 62     48%   85 29.92 29.92      
May 16 12:53 S 14 10 Partly Cloudy SCT045 83 62     49%   84 29.94 29.94      
May 16 11:53   10 Partly Cloudy SCT040 83 64     53%   84 29.96 29.96      
May 16 10:53   10 Mostly Clear FEW030 FEW250 80 64     58%   82 29.96 29.96      
May 16 09:53   10 Partly Cloudy FEW120 SCT250 79 65     62%   80 29.97 29.97      
May 16 08:53 SSW 7 10 Mostly Clear FEW250 75 64     69%   75 29.97 29.97      
May 16 07:53 WSW 5 10 Partly Cloudy FEW050 SCT250 71 62     73%   71 29.96 29.96      
May 16 06:53 S 6 10 Mostly Cloudy FEW050 BKN200 67 61     81%     29.95 29.95      
May 16 05:53 SW 7 10 Mostly Cloudy FEW050 BKN250 65 61     87%     29.94 29.93      
May 16 04:53 S 7 10 Clear CLR 64 61     90%     29.94 29.93      
May 16 03:53 S 6 10 Clear CLR 64 61     90%     29.93 29.93      
May 16 02:53 S 7 10 Clear CLR 64 61     90%     29.92 29.92      
May 16 01:53 SSE 9 10 Clear CLR 66 61     84%     29.91 29.91      
May 16 00:53 S 8 10 Clear CLR 65 61     87%     29.91 29.91      
May 15 23:53 S 9 10 Clear CLR 67 62     84%     29.92 29.92      
May 15 22:53 S 9 10 Clear CLR 68 63     84%     29.93 29.93      
May 15 21:53 S 6 10 Mostly Clear FEW250 70 65     84%     29.93 29.93      
May 15 20:53 SSE 5 10 Mostly Clear FEW055 FEW250 73 64     73%   73 29.92 29.92      
May 15 19:53 SSE 6 10 Partly Cloudy FEW055 SCT250 76 64     67%   76 29.92 29.92      
May 15 18:53 SSE 9 10 Clear   81 63     54%   82 29.92 29.92      
May 15 17:53 S 10 10 Partly Cloudy FEW060 SCT250 82 62     51%   83 29.92 29.92      
May 15 16:53   10 Partly Cloudy FEW050 SCT250 83 62     49%   84 29.93 29.93      
May 15 15:53 SSE 8 10 Partly Cloudy FEW050 SCT250 83 62     49%   84 29.94 29.93      
May 15 14:53 SE 7 10 Partly Cloudy FEW050 SCT250 83 61     48%   83 29.95 29.95      
May 15 13:53 SSE 8 10 Partly Cloudy FEW050 SCT250 82 59     46%   82 29.97 29.97      
May 15 12:53 6 10 Partly Cloudy FEW050 SCT250 82 60     47%   82 29.99 29.99      
May 15 11:53 SSW 11 10 Partly Cloudy SCT045 80 60     51%   81 30.01 30.01      
May 15 10:53 S 10 10 Mostly Clear FEW030 FEW250 79 59     50%   79 30.01 30.01      
May 15 09:53 7 10 Mostly Clear FEW250 76 63     64%   76 30.01 30.01      
May 15 08:53 SSE 6 10 Partly Cloudy SCT250 70 63     78%     30 30      
May 15 07:53 SSE 5 10 Partly Cloudy SCT250 64 61     90%     29.98 29.98      
May 15 06:53 Calm 10 Mostly Cloudy FEW150 BKN250 60 60     100%     29.99 29.98      
May 15 05:53 SSW 3 10 Mostly Cloudy FEW150 BKN250 60 60     100%     29.97 29.97      
May 15 04:53 Calm 10 Partly Cloudy SCT250 59 59     100%     29.97 29.97      
May 15 03:53 Calm 10 Clear CLR 60 60     100%     29.96 29.96      
May 15 02:53 Calm 10 Clear CLR 62 61     96%     29.96 29.96      
May 15 01:53 W 3 10 Clear CLR 63 62     97%     29.96 29.96      
May 15 00:53 Calm 10 Clear CLR 63 61     93%     29.95 29.95      
May 14 23:53 Calm 10 Clear CLR 65 61     87%     29.95 29.95      
May 14 22:53 SSE 7 10 Clear CLR 66 62     87%     29.94 29.94      
May 14 21:53 SSE 6 10 Clear CLR 67 62     84%     29.94 29.94      
May 14 20:53 SSE 6 10 Clear CLR 69 62     78%     29.93 29.93      
May 14 19:53 SSE 5 10 Mostly Clear FEW250 73 60     64%   73 29.92 29.92      
May 14 18:53 SSE 7 10 Mostly Clear FEW060 FEW250 77 59     54%   77 29.92 29.92      
May 14 17:53 SSE 7 10 Mostly Clear FEW060 FEW250 79 58     49%   79 29.92 29.93      
May 14 16:53 7 10 Mostly Clear FEW060 FEW250 79 57     47%   79 29.93 29.93      
May 14 15:53 SSE 9 10 Mostly Clear FEW060 FEW250 79 56     45%   79 29.94 29.94      
May 14 14:53 5 10 Mostly Clear FEW060 FEW250 78 56     47%   78 29.96 29.96      
May 14 13:53 5 10 Mostly Clear FEW060 FEW250 78 56     47%   78 29.98 29.98      
May 14 12:53 SSE 7 10 Mostly Clear FEW060 77 56     48%   77 30 29.99      
May 14 11:53 Calm 10 Mostly Clear FEW060 77 56     48%   77 30.02 30.02      
May 14 10:53 E 3 10 Mostly Clear FEW060 74 56     53%   74 30.03 30.03      
May 14 09:53 SSE 5 10 Clear CLR 71 57     61%   71 30.03 30.03      
May 14 08:53 Calm 10 Mostly Clear FEW020 68 59     73%     30.03 30.03      
May 14 07:53 Calm 10 Clear CLR 61 58     90%     30.03 30.03      
May 14 06:53 Calm 10 Clear CLR 55 55     100%     30.02 30.02      
May 14 05:53 WSW 5 10 Clear CLR 53 53     100%     29.99 30      
May 14 04:53 WSW 3 10 Clear CLR 54 54     100%     29.97 29.97      
May 14 03:53 W 5 10 Clear CLR 55 55     100%     29.95 29.96      
May 14 02:53 Calm 10 Clear CLR 57 57     100%     29.94 29.93      
May 14 01:53 Calm 10 Clear CLR 57 57     100%     29.94 29.93      
May 14 00:53 Calm 10 Clear CLR 57 56     96%     29.95 29.95      
May 13 23:53 WSW 3 10 Clear CLR 60 57     90%     29.95 29.95      
May 13 22:53 WSW 3 10 Clear CLR 61 57     87%     29.94 29.94      
May 13 21:53 Calm 10 Clear CLR 64 54     70%     29.93 29.93      
May 13 20:53 E 3 10 Clear CLR 65 53     65%     29.92 29.92      
May 13 19:53 E 7 10 Clear CLR 68 53     59%     29.92 29.93      
May 13 18:53 E 9 10 Clear CLR 73 51     46%   72 29.92 29.92      
May 13 17:53 ENE 13 10 Clear CLR 75 49     40%   74 29.92 29.93